GFSNW_700_spd_162.txt.gz
Wind_Speed
37 37 37 36 35 31 30 31 33 34 29 30 34 42 39 43 41 34 43 42 36 27 28 26 19 21 24 8 26 17 13 21 29 27 25 22 22 28 35 22 8 8 6 19
28 29 30 32 34 32 33 35 32 35 25 33 39 43 38 40 43 41 42 37 28 23 32 37 41 43 45 42 40 20 11 4 9 13 20 23 26 25 24 31 18 22 7 16
25 25 25 26 28 30 33 35 31 36 34 35 40 37 36 37 36 39 39 32 30 29 34 28 22 27 24 22 24 23 20 27 26 16 9 14 18 30 29 27 18 18 27 26
26 25 25 25 25 28 32 35 36 36 18 42 39 35 34 33 35 34 30 24 34 42 34 36 35 39 39 35 31 31 27 23 22 28 34 33 26 23 26 29 26 21 35 33
28 27 26 26 25 27 35 35 40 32 31 40 31 35 35 41 38 35 31 29 25 25 27 29 33 33 35 38 35 33 33 34 29 38 41 36 37 41 20 26 32 30 26 33
29 28 28 28 28 29 30 37 40 21 38 25 34 31 23 32 31 35 36 29 26 29 28 28 32 33 34 36 37 36 33 31 25 34 36 23 19 43 47 38 28 26 29 31
31 29 29 29 28 30 30 32 35 39 36 34 32 33 31 34 30 36 35 27 24 24 22 22 24 29 33 34 35 32 32 33 31 26 22 6 17 14 11 28 33 30 30 32
31 29 28 28 28 29 31 33 35 35 35 32 34 38 38 40 30 29 29 33 20 17 21 26 27 22 26 32 29 29 30 34 25 7 14 5 16 16 21 22 26 26 30 26
34 30 27 26 25 26 29 32 34 37 39 45 29 15 20 27 35 30 24 26 27 23 23 20 21 14 15 7 5 7 12 18 31 17 5 8 12 11 13 14 26 19 20 21
33 29 29 29 29 28 28 30 30 31 37 47 44 44 29 21 22 14 15 14 18 17 22 24 18 22 24 12 16 17 14 15 36 25 11 9 11 7 19 16 10 11 9 11
35 33 32 30 29 29 31 32 32 32 38 43 42 46 50 46 25 20 21 24 24 21 15 17 21 18 19 21 27 22 17 10 16 21 12 9 8 20 21 18 18 14 13 14
36 33 32 30 29 28 27 31 31 30 35 41 40 44 44 43 47 43 36 30 16 10 6 7 17 16 19 18 9 10 18 23 7 10 8 3 7 8 7 7 9 9 10 14
33 30 29 28 27 24 27 28 27 26 32 41 42 46 38 38 44 31 34 35 34 24 17 22 16 16 9 10 16 15 8 10 17 13 11 13 15 11 15 16 15 10 5 9
31 29 27 26 24 23 26 27 24 27 29 36 41 35 36 35 35 37 41 39 30 32 24 18 16 16 12 14 14 18 16 18 16 21 22 22 23 23 22 19 16 13 11 12
28 27 25 23 23 23 26 24 25 26 28 20 20 27 31 33 34 31 32 39 36 22 27 24 17 18 16 21 24 23 16 16 19 19 12 11 11 15 19 20 17 19 21 21
26 27 23 22 22 24 25 23 22 24 27 28 31 26 15 19 22 31 32 34 44 43 39 34 22 18 16 16 21 20 18 20 24 30 27 26 22 19 17 18 18 17 20 17
25 21 21 18 20 23 23 18 20 19 21 23 25 27 25 23 17 19 23 30 36 33 31 25 23 19 22 29 33 24 21 19 20 19 21 24 24 28 28 28 26 24 24 23
24 21 20 17 19 19 22 23 12 9 18 25 19 22 27 17 14 17 22 33 30 24 23 22 20 21 23 28 26 22 16 15 19 21 21 25 25 25 24 23 23 25 26 26
23 20 19 18 19 20 18 19 22 19 21 10 28 28 22 23 24 14 17 18 21 17 21 19 16 22 19 17 17 16 14 18 21 20 23 25 25 24 25 26 27 29 28 28
21 20 20 19 18 13 10 15 21 28 32 34 20 26 21 20 20 17 16 14 14 6 13 13 22 29 13 9 8 7 8 13 18 25 24 23 25 26 27 29 30 31 31 30
21 20 19 15 9 11 12 10 15 13 20 22 29 20 9 19 23 20 15 9 8 6 7 11 7 10 3 6 12 16 14 14 17 16 12 12 13 13 16 18 19 20 24 29
19 18 17 15 14 9 9 11 12 12 19 19 20 28 23 17 17 11 11 7 8 4 7 6 7 12 9 11 13 15 14 12 13 14 19 15 12 12 14 16 19 20 20 18
18 16 11 6 10 11 10 13 9 9 16 20 21 22 19 18 15 8 8 7 7 5 6 6 17 17 12 15 14 14 14 14 12 13 9 10 13 14 16 15 15 18 22 20
6 3 5 7 5 7 9 13 11 12 16 23 22 19 20 17 15 7 7 8 6 6 7 13 16 16 12 20 20 20 19 17 16 19 19 20 22 21 22 22 25 22 20 24
2 3 4 8 8 7 10 14 14 18 19 20 25 26 15 19 8 8 7 7 7 9 15 18 14 17 24 16 16 15 15 15 17 20 23 24 23 22 21 22 22 21 19 21
3 4 6 12 15 14 15 13 13 14 22 26 25 19 10 9 7 8 9 8 11 17 17 16 23 20 15 15 19 19 22 24 24 26 29 27 25 24 24 22 19 16 16 20
3 6 9 9 11 13 14 16 18 20 24 27 22 10 10 10 10 16 17 26 22 16 20 21 17 13 18 21 23 25 27 27 28 28 24 22 24 22 20 18 14 12 11 14

GFSNW_700_spd_165.txt.gz
Wind_Speed
38 37 36 35 33 30 29 31 35 39 34 30 33 38 41 39 36 20 32 40 33 30 24 23 27 29 21 11 13 22 26 16 22 22 23 24 25 28 30 24 25 17 21 26
34 35 35 36 35 32 31 34 34 34 33 33 39 38 40 41 37 34 33 28 20 18 17 20 22 27 31 33 24 17 22 12 10 18 18 19 21 22 30 29 27 25 16 14
25 26 26 28 30 32 33 34 31 35 31 40 36 38 43 41 38 37 35 33 32 32 35 37 34 32 17 12 11 16 18 20 23 20 18 16 17 16 14 15 24 26 31 30
23 23 22 22 23 26 33 34 35 33 21 37 42 36 37 36 35 32 24 23 28 29 36 35 39 35 34 36 36 34 28 29 29 32 36 29 29 30 32 31 23 28 35 32
25 25 24 23 23 24 29 37 32 34 36 34 23 31 34 32 31 29 26 23 22 22 23 21 25 22 22 23 21 20 23 28 34 37 31 30 32 33 38 38 38 34 31 38
25 26 26 25 24 24 26 32 31 23 37 29 38 27 25 29 25 29 22 21 22 28 22 17 21 26 29 31 32 31 30 30 32 30 31 21 21 37 33 37 41 41 37 41
26 27 25 26 26 25 25 26 29 36 34 19 14 25 26 16 20 24 21 22 21 20 20 18 22 25 27 27 32 33 33 29 26 27 25 12 29 26 30 21 24 35 44 35
30 28 27 26 24 25 25 27 27 29 34 35 35 34 25 27 29 25 29 26 19 17 15 16 17 17 23 27 26 26 31 31 23 19 22 22 30 28 23 18 18 17 24 19
37 33 30 27 25 24 27 25 24 26 29 34 31 29 22 20 25 26 31 31 24 19 22 20 14 10 13 9 8 7 10 20 29 18 6 8 24 19 21 17 23 15 15 23
32 36 35 31 28 25 26 26 27 29 32 37 34 35 33 30 19 15 12 12 12 13 21 27 21 17 13 9 10 12 13 12 25 26 19 18 24 13 10 15 4 6 11 11
34 33 31 34 30 29 28 26 25 26 30 33 34 35 37 35 38 38 27 20 9 10 15 16 7 12 13 17 19 15 17 11 13 15 17 11 11 16 16 17 13 9 14 8
33 34 32 27 25 26 27 28 27 28 29 34 33 34 36 37 36 36 37 40 40 32 18 22 6 7 8 14 13 10 12 20 12 11 11 14 12 16 16 15 15 7 8 10
32 31 31 30 30 30 29 28 26 25 30 35 35 36 32 33 32 28 37 36 37 36 30 26 31 17 16 13 11 8 14 13 16 16 20 20 6 10 18 8 11 13 11 11
30 30 29 30 31 25 24 25 22 24 25 29 33 23 23 22 26 30 33 33 29 31 29 26 32 27 10 14 15 14 11 13 17 21 17 13 13 10 12 15 17 13 10 7
28 29 27 24 22 20 22 22 22 21 22 21 24 21 17 19 25 29 27 29 30 29 34 31 20 13 13 16 20 22 20 20 19 20 15 18 15 12 8 12 12 14 13 13
26 29 25 23 21 22 23 22 22 22 21 25 31 29 24 25 24 24 26 29 29 29 34 33 37 38 28 17 20 24 14 12 12 16 17 22 23 24 20 16 13 14 15 15
24 23 24 21 21 22 20 19 18 17 18 22 27 28 23 24 23 22 23 29 35 32 29 36 35 32 22 27 31 16 17 17 15 18 23 25 21 21 20 25 26 24 22 20
24 24 20 19 17 17 20 21 18 10 13 17 15 19 25 17 18 17 23 22 29 27 28 28 30 30 27 23 16 11 11 12 16 18 21 24 26 26 22 23 24 26 28 28
23 22 21 19 15 16 11 14 20 22 16 10 20 26 24 16 16 19 25 26 28 24 29 28 18 20 20 12 8 8 8 12 14 16 19 22 25 26 26 23 25 28 27 26
24 21 19 15 10 9 11 13 16 20 26 30 33 23 16 19 23 9 17 13 19 14 19 23 28 29 22 12 7 5 6 9 14 18 18 19 21 23 26 25 25 27 28 28
23 19 15 12 12 12 10 7 10 11 12 23 29 31 22 20 19 12 9 9 8 7 9 16 8 13 6 10 8 10 11 14 15 18 20 18 17 14 16 16 18 21 22 23
18 16 14 13 11 8 8 7 9 10 12 15 12 13 13 14 14 7 7 6 9 6 10 9 6 8 12 10 12 14 16 15 18 21 20 18 17 14 13 13 14 16 20 22
15 12 11 8 11 11 9 11 13 11 16 15 20 15 10 11 7 7 5 6 5 5 7 5 7 6 9 9 9 17 16 18 19 18 16 16 17 14 14 18 18 17 15 17
12 10 8 8 7 9 17 22 20 17 13 11 12 14 10 10 8 5 4 5 5 6 7 5 4 6 7 9 20 19 16 19 19 21 23 21 21 22 20 23 24 23 23 22
3 4 3 8 9 11 12 14 16 13 11 10 16 20 11 13 6 6 6 7 7 8 5 3 3 4 12 16 12 10 13 16 16 16 17 17 20 23 22 23 24 22 22 21
5 5 9 8 4 3 3 2 6 9 13 18 19 9 3 7 7 8 9 6 5 1 2 2 7 14 14 13 13 16 18 22 23 24 25 23 21 21 19 20 23 22 20 18
5 7 6 5 6 8 7 6 6 10 18 23 11 7 8 6 7 11 9 6 1 6 9 14 15 14 13 14 15 18 19 24 24 22 23 23 23 23 23 24 22 20 16 14

GFSNW_700_spd_168.txt.gz
Wind_Speed
36 36 37 36 35 32 28 30 34 36 25 25 36 38 29 28 21 25 29 25 18 18 18 21 16 14 7 14 15 16 19 10 21 23 21 20 20 24 27 27 17 26 27 32
34 35 37 35 34 33 30 30 35 38 34 37 43 36 35 28 26 24 27 23 17 17 19 16 22 23 16 12 12 13 10 8 12 18 19 11 20 24 26 23 21 28 19 20
28 30 32 33 33 35 34 33 28 35 36 42 33 32 33 30 33 29 25 27 22 24 27 26 24 26 22 19 15 18 15 18 18 21 20 14 16 15 16 17 11 22 32 33
23 24 24 25 27 32 33 38 33 34 26 35 37 35 33 33 28 23 19 19 28 26 26 24 26 25 24 22 24 29 21 25 27 30 30 29 31 30 33 33 30 25 27 25
25 23 22 23 22 23 31 38 35 37 34 31 21 33 29 34 27 27 19 25 21 20 23 24 23 17 18 19 17 15 17 27 23 31 27 28 33 32 33 34 39 36 34 38
24 26 25 23 22 23 24 31 35 22 27 38 33 31 25 17 22 25 26 23 22 21 23 23 26 22 23 24 22 21 21 21 19 26 23 26 22 40 36 38 36 35 35 46
25 23 24 25 24 23 24 24 27 34 29 14 30 31 29 28 21 22 13 13 13 15 19 20 22 25 24 24 29 26 28 26 25 28 25 19 35 28 26 29 32 28 32 34
29 27 25 25 26 26 25 22 24 27 29 27 25 19 20 13 13 20 21 17 16 17 16 13 12 14 17 26 28 28 30 29 27 28 27 28 32 33 30 23 29 23 28 25
31 30 28 27 25 25 24 25 24 25 28 28 22 21 19 16 16 16 20 23 23 21 24 18 14 11 12 9 7 9 17 30 34 19 18 16 28 9 12 13 29 21 22 22
31 31 33 31 29 28 28 28 26 25 24 27 24 20 16 20 19 19 17 13 13 16 24 24 22 26 20 19 18 14 12 15 23 27 17 9 18 19 14 16 12 3 8 7
33 32 28 37 32 31 30 27 27 27 28 31 29 27 26 25 25 22 20 29 21 16 17 13 7 9 18 22 20 18 18 12 14 14 12 14 16 9 10 14 11 4 7 7
32 34 30 26 34 31 26 25 23 23 24 24 23 27 28 28 26 26 28 28 17 20 15 16 16 19 24 13 6 8 11 16 12 9 7 10 19 22 20 25 18 2 2 9
31 31 30 30 26 26 27 26 23 21 23 28 29 29 25 28 28 26 27 31 25 26 23 19 14 18 20 12 11 10 11 14 14 14 12 15 17 16 22 18 12 3 2 8
30 30 28 27 24 23 24 23 21 21 24 27 28 27 21 15 20 24 27 28 25 25 18 21 21 21 22 20 13 11 10 11 14 16 16 12 6 10 13 8 4 7 11 11
27 29 29 27 24 25 25 26 23 21 21 18 16 16 10 13 20 21 20 22 23 23 25 25 22 22 22 14 14 16 15 15 15 16 12 12 14 20 18 15 11 10 13 10
25 26 26 25 28 26 25 19 18 19 18 21 22 21 19 16 20 21 19 18 26 27 26 26 26 27 19 19 24 18 16 16 15 15 13 17 18 17 14 18 18 14 13 13
24 25 20 23 22 22 21 17 14 15 18 21 20 16 19 16 17 20 23 22 27 26 30 34 22 15 18 25 33 25 16 19 19 21 21 22 19 19 18 18 16 22 24 21
23 24 22 20 19 19 17 17 16 14 12 18 14 17 21 16 16 15 16 20 25 27 31 24 22 18 22 27 33 15 13 16 17 15 17 18 18 20 20 21 22 23 24 25
25 24 23 21 18 15 10 13 16 16 17 8 10 18 13 12 14 14 17 17 24 25 29 24 16 20 22 26 10 9 11 10 8 7 10 14 18 19 20 23 24 22 24 28
24 23 21 18 15 12 12 12 14 18 21 28 30 18 20 17 9 16 15 23 21 17 23 19 32 28 27 22 16 10 11 8 6 8 11 15 18 20 20 19 21 23 22 25
23 23 19 13 12 12 12 8 7 7 9 21 28 28 25 25 22 22 16 9 18 15 14 21 12 22 27 21 19 17 13 9 10 12 14 16 19 21 21 21 19 18 19 21
20 15 13 13 12 8 8 8 8 11 10 15 13 8 14 20 18 10 7 4 7 5 17 12 6 16 13 14 19 15 10 11 15 16 17 21 22 20 17 16 15 14 15 16
14 13 12 5 8 10 9 9 9 10 12 8 10 12 12 11 11 5 3 3 4 8 9 6 9 18 19 15 11 11 12 16 16 17 19 21 22 21 21 19 23 15 15 17
8 6 7 8 8 8 11 14 11 17 20 16 10 10 8 9 4 3 4 6 6 6 5 7 15 13 16 11 8 12 14 13 12 16 17 16 17 20 19 18 19 18 24 25
6 5 5 9 11 12 10 11 14 16 16 12 10 15 7 8 3 3 3 5 3 4 3 9 15 13 7 6 7 9 10 14 18 19 21 24 23 21 21 19 19 19 20 21
6 5 7 11 7 4 5 7 4 5 6 7 13 9 4 4 3 3 3 1 0 3 9 10 5 4 7 9 10 10 11 14 15 20 27 25 24 26 25 23 20 20 21 20
5 9 12 7 6 6 7 8 8 4 4 10 6 5 5 3 3 3 2 3 5 2 2 4 7 8 9 10 10 11 15 16 18 23 23 20 19 19 20 21 21 21 21 19

GFSNW_700_spd_171.txt.gz
Wind_Speed
37 40 37 36 37 37 33 30 30 28 30 29 40 46 39 21 20 20 13 21 21 16 11 12 12 8 18 16 8 10 10 7 18 27 26 22 21 23 24 24 19 28 29 33
34 32 35 39 37 35 29 34 36 33 30 35 41 39 42 34 26 19 14 16 20 19 20 12 14 15 18 23 12 6 7 6 12 21 25 23 25 24 34 32 28 22 14 17
36 34 33 33 36 35 31 33 26 37 30 40 36 34 29 28 18 23 23 24 22 22 23 20 15 16 12 9 7 17 17 17 21 21 26 16 19 18 18 16 10 21 30 31
27 26 28 31 33 33 30 36 32 32 22 41 37 36 28 29 28 28 23 28 28 26 25 27 27 25 25 25 23 24 21 21 23 21 28 29 30 30 30 33 34 33 36 33
24 24 24 25 25 28 32 36 42 31 38 27 24 43 41 35 30 27 31 27 24 23 28 28 27 26 26 27 20 24 26 33 30 36 37 34 33 33 37 40 38 40 40 43
25 22 23 22 21 22 26 32 37 34 40 31 28 26 19 23 25 32 28 27 23 28 25 25 26 22 20 22 19 20 22 22 20 27 27 28 28 33 36 38 37 38 40 41
26 24 23 25 23 21 22 22 29 35 26 23 32 31 30 25 22 24 11 32 27 25 23 26 28 30 30 27 29 27 29 25 25 30 28 22 37 30 34 37 37 37 36 36
29 28 26 25 25 23 24 21 23 20 30 26 22 14 16 22 28 23 27 21 16 12 17 8 15 19 22 31 28 29 27 28 30 29 29 32 33 34 31 32 35 35 34 31
28 28 29 26 25 24 24 25 22 22 19 19 15 16 16 9 6 9 11 14 15 14 15 12 8 14 10 10 12 22 28 31 31 27 24 20 36 21 19 18 27 15 11 16
28 29 32 30 26 24 25 25 25 25 24 20 15 11 12 12 9 12 14 14 13 15 19 19 21 25 20 23 22 18 17 19 28 32 27 21 26 24 25 18 13 10 11 8
33 29 30 29 27 27 28 24 24 22 24 22 21 20 19 17 17 19 18 13 14 18 13 3 11 8 11 18 25 26 26 23 21 20 18 14 12 9 11 10 14 16 15 14
31 31 29 29 28 33 29 29 26 24 24 15 24 25 25 22 19 17 16 16 11 8 10 9 12 19 17 10 11 18 29 23 17 10 9 12 11 11 16 23 25 26 29 25
30 31 31 29 32 32 35 32 27 23 24 24 23 22 17 20 20 20 20 18 18 21 16 22 20 14 10 11 11 19 8 9 13 11 6 10 10 13 13 18 20 18 15 8
28 29 28 28 26 21 27 29 25 21 21 21 17 20 19 19 23 23 26 25 21 19 15 18 21 22 15 15 17 24 24 8 6 12 13 14 9 8 12 18 17 15 6 3
27 29 27 24 22 21 19 21 26 21 19 10 11 14 11 11 17 20 21 17 19 22 21 23 21 18 20 26 29 21 11 11 13 12 11 12 12 13 16 13 17 14 10 10
26 27 26 24 21 20 22 25 22 21 23 21 18 12 14 12 17 18 14 16 17 21 22 21 23 21 18 18 23 18 16 15 13 15 14 15 18 19 16 16 14 14 15 15
25 25 24 24 23 23 31 19 18 15 15 18 15 11 8 7 15 17 19 21 22 22 23 29 20 14 18 30 41 28 22 19 17 15 20 18 16 15 12 11 13 15 16 16
26 23 21 22 23 25 28 19 10 12 14 16 10 13 13 12 13 15 19 22 24 28 28 19 23 21 23 23 23 17 15 17 17 18 15 13 10 9 11 13 15 14 15 16
26 24 21 20 20 17 17 15 13 14 16 9 14 15 16 11 14 14 16 17 24 24 27 29 21 23 30 29 18 15 12 15 11 10 9 9 8 9 10 13 16 18 19 20
23 22 21 18 16 14 11 9 11 15 19 23 29 17 19 12 12 4 9 16 23 16 23 15 32 33 30 24 12 9 11 12 10 9 9 8 11 13 17 19 21 22 22 21
23 22 20 13 12 10 11 8 8 8 12 20 27 28 28 21 21 16 12 11 10 13 13 20 18 27 30 30 27 21 16 16 14 12 11 14 17 19 22 24 25 26 25 21
19 16 13 13 13 7 7 7 8 11 9 12 15 16 15 19 25 18 14 17 8 6 13 13 11 12 15 15 20 20 21 17 15 14 16 16 18 20 22 23 23 21 20 17
15 13 12 6 7 9 7 10 9 10 15 15 10 11 13 14 11 12 8 7 6 5 8 5 8 7 11 11 18 20 16 13 14 15 14 15 18 19 19 21 23 24 25 21
9 7 6 6 7 9 16 16 15 16 19 18 18 22 9 17 12 5 4 3 4 2 3 2 3 13 14 13 12 10 10 11 11 12 14 16 20 23 25 23 19 21 24 24
6 7 7 12 13 15 15 12 14 16 18 19 19 12 8 8 4 3 2 3 3 4 2 3 6 7 12 10 9 9 11 11 11 14 16 19 24 29 26 26 28 28 26 24
6 5 7 10 10 6 5 4 5 6 5 5 6 4 2 3 2 2 3 2 1 1 3 8 9 9 9 9 11 12 12 12 13 15 18 20 25 23 21 21 23 26 27 27
4 7 9 8 7 8 7 7 5 6 2 3 3 2 2 2 2 3 4 4 5 8 11 10 9 9 10 11 12 12 11 13 15 17 18 18 23 23 23 24 23 23 24 24